Weather reports worldwide

Advertisment
Kinlochewe, United Kingdom (99092): temperature & dewpoint: 20.05.2019 01:00:00 - 26.05.2019 01:00:00 (BST)Kinlochewe, United Kingdom (99092): temperature -20cm: 20.05.2019 01:00:00 - 26.05.2019 01:00:00 (BST)Kinlochewe, United Kingdom (99092): precipitation: 20.05.2019 01:00:00 - 26.05.2019 01:00:00 (BST)
Date & Time tt [°C] td [°C] tt -20cm [°C] rr [mm]
26.05.2019 01:00:00 - - - -
26.05.2019 00:00:00 9,1 8,8 - 1,0
25.05.2019 23:00:00 9,7 9,6 - 0,8
25.05.2019 22:00:00 10,0 9,9 - 1,0
25.05.2019 21:00:00 10,2 9,8 - 0,4
25.05.2019 20:00:00 10,7 10,3 - 1,4
25.05.2019 19:00:00 10,9 10,5 - 1,2
25.05.2019 18:00:00 11,0 10,5 - 1,4
25.05.2019 17:00:00 11,0 10,6 - 1,4
25.05.2019 16:00:00 10,9 9,5 - 0,2
25.05.2019 15:00:00 11,3 8,4 - 0,2
25.05.2019 14:00:00 11,2 8,9 - 0,4
25.05.2019 13:00:00 10,8 8,0 - 0,4
25.05.2019 12:00:00 10,4 7,5 - 0,2
25.05.2019 11:00:00 10,0 7,7 - 0,6
25.05.2019 10:00:00 9,8 5,5 10,7 0,0
25.05.2019 09:00:00 9,6 5,1 - 0,0
25.05.2019 08:00:00 9,1 5,2 - 0,0
25.05.2019 07:00:00 8,5 5,6 - 0,0
25.05.2019 06:00:00 8,1 4,8 - 0,0
25.05.2019 05:00:00 7,9 4,9 - 0,0
25.05.2019 04:00:00 8,0 5,4 - 0,0
25.05.2019 03:00:00 7,9 5,2 - 0,0
25.05.2019 02:00:00 8,0 5,4 - 0,0
25.05.2019 01:00:00 8,4 5,4 - 0,0
25.05.2019 00:00:00 8,4 6,3 - 0,0
24.05.2019 23:00:00 8,9 6,0 - 0,0
24.05.2019 22:00:00 9,2 6,3 - 0,0
24.05.2019 21:00:00 9,7 6,6 - 0,0
24.05.2019 20:00:00 10,0 6,7 - 0,0
24.05.2019 19:00:00 9,6 6,7 - 0,0
24.05.2019 18:00:00 10,6 5,4 - 0,0
24.05.2019 17:00:00 11,9 5,3 - 0,0
24.05.2019 16:00:00 12,2 5,3 - 0,0
24.05.2019 15:00:00 11,5 6,1 - 0,0
24.05.2019 14:00:00 11,7 5,7 - 0,0
24.05.2019 13:00:00 10,9 5,8 - 0,0
24.05.2019 12:00:00 11,1 5,5 - 0,0
24.05.2019 11:00:00 9,8 6,5 - 0,0
24.05.2019 10:00:00 9,2 5,7 10,5 0,0
24.05.2019 09:00:00 8,9 6,2 - 0,0
24.05.2019 08:00:00 8,4 6,8 - 0,0
24.05.2019 07:00:00 7,9 6,4 - 0,0
24.05.2019 06:00:00 8,0 6,8 - 0,0
24.05.2019 05:00:00 8,5 6,0 - 0,0
24.05.2019 04:00:00 8,1 6,9 - 0,0
24.05.2019 03:00:00 8,4 6,7 - 0,0
24.05.2019 02:00:00 8,1 7,4 - 0,0
24.05.2019 01:00:00 8,3 6,9 - 0,0
24.05.2019 00:00:00 8,5 6,6 - 0,0
23.05.2019 23:00:00 8,5 6,7 - 0,0
23.05.2019 22:00:00 8,9 7,0 - 0,0
23.05.2019 21:00:00 8,7 7,6 - 0,0
23.05.2019 20:00:00 9,4 7,1 - 0,0
23.05.2019 19:00:00 9,7 6,9 - 0,0
23.05.2019 18:00:00 9,6 7,2 - 0,0
23.05.2019 17:00:00 9,5 7,4 - 0,0
23.05.2019 16:00:00 9,8 7,1 - 0,0
23.05.2019 15:00:00 9,9 7,6 - 0,0
23.05.2019 14:00:00 9,5 8,2 - 0,0
23.05.2019 13:00:00 9,0 8,6 - 0,2
23.05.2019 12:00:00 9,2 9,2 - 0,0
23.05.2019 11:00:00 8,4 8,3 - 0,2
23.05.2019 10:00:00 7,9 7,9 10,7 0,6
23.05.2019 09:00:00 7,9 7,9 - 0,2
23.05.2019 08:00:00 8,2 8,2 - 0,2
23.05.2019 07:00:00 8,5 8,5 - 1,6
23.05.2019 06:00:00 8,6 8,6 - 2,6
23.05.2019 05:00:00 8,8 8,8 - 2,0
23.05.2019 04:00:00 8,7 8,7 - 1,8
23.05.2019 03:00:00 8,7 8,7 - 1,8
23.05.2019 02:00:00 8,8 8,8 - 1,2
23.05.2019 01:00:00 8,7 8,7 - 0,6
23.05.2019 00:00:00 8,8 8,7 - 1,0
22.05.2019 23:00:00 9,0 8,9 - 1,0
22.05.2019 22:00:00 9,1 8,9 - 1,0
22.05.2019 21:00:00 9,3 9,0 - 1,0
22.05.2019 20:00:00 9,7 9,3 - 1,0
22.05.2019 19:00:00 9,9 9,3 - 1,2
22.05.2019 18:00:00 10,0 9,2 - 0,6
22.05.2019 17:00:00 10,3 9,8 - 0,6
22.05.2019 16:00:00 10,3 10,0 - 1,0
22.05.2019 15:00:00 10,3 9,5 - 0,0
22.05.2019 14:00:00 10,0 9,7 - 1,2
22.05.2019 13:00:00 9,6 9,4 - 0,8
22.05.2019 12:00:00 9,5 9,3 - 1,6
22.05.2019 11:00:00 10,0 9,8 - 1,0
22.05.2019 10:00:00 9,9 9,7 11,0 1,6
22.05.2019 09:00:00 9,6 9,5 - 2,6
22.05.2019 08:00:00 9,2 9,1 - 1,2
22.05.2019 07:00:00 8,7 8,6 - 0,8
22.05.2019 06:00:00 8,1 7,8 - 2,2
22.05.2019 05:00:00 7,9 7,6 - 1,6
22.05.2019 04:00:00 7,8 7,3 - 0,2
22.05.2019 03:00:00 7,6 7,2 - 0,6
22.05.2019 02:00:00 7,9 6,8 - 0,0
22.05.2019 01:00:00 8,7 6,2 - 0,0
22.05.2019 00:00:00 7,9 6,2 - 0,0
21.05.2019 23:00:00 6,8 5,9 - 0,0
21.05.2019 22:00:00 8,3 5,5 - 0,2
21.05.2019 21:00:00 8,9 6,4 - 0,4
21.05.2019 20:00:00 10,1 5,5 - 0,0
21.05.2019 19:00:00 11,7 5,5 - 0,0
21.05.2019 18:00:00 10,9 7,3 - 0,2
21.05.2019 17:00:00 12,4 5,2 - 0,0
21.05.2019 16:00:00 13,9 4,9 - 0,0
21.05.2019 15:00:00 13,3 6,2 - 0,0
21.05.2019 14:00:00 13,7 6,8 - 0,0
21.05.2019 13:00:00 12,7 5,3 - 0,0
21.05.2019 12:00:00 12,1 5,7 - 0,0
21.05.2019 11:00:00 12,3 6,6 - 0,0
21.05.2019 10:00:00 11,1 7,8 11,0 0,0
21.05.2019 09:00:00 11,9 8,1 - 0,0
21.05.2019 08:00:00 10,6 8,0 - 0,0
21.05.2019 07:00:00 9,1 7,6 - 0,0
21.05.2019 06:00:00 8,7 7,5 - 0,0
21.05.2019 05:00:00 8,6 7,5 - 0,0
21.05.2019 04:00:00 8,6 7,1 - 0,0
21.05.2019 03:00:00 8,8 7,7 - 0,0
21.05.2019 02:00:00 8,1 7,0 - 0,0
21.05.2019 01:00:00 9,1 8,0 - 0,0
21.05.2019 00:00:00 8,1 7,3 - 0,0
20.05.2019 23:00:00 8,1 7,4 - 0,0
20.05.2019 22:00:00 8,9 6,9 - 0,0
20.05.2019 21:00:00 10,6 8,1 - 0,0
20.05.2019 20:00:00 10,4 9,1 - 0,0
20.05.2019 19:00:00 11,1 9,2 - 0,0
20.05.2019 18:00:00 12,7 8,6 - 0,0
20.05.2019 17:00:00 13,4 9,2 - 0,0
20.05.2019 16:00:00 12,9 9,4 - 0,0
20.05.2019 15:00:00 12,2 10,2 - 0,0
20.05.2019 14:00:00 11,2 10,3 - 2,4
20.05.2019 13:00:00 12,3 9,7 - 0,0
20.05.2019 12:00:00 11,8 9,7 - 0,0
20.05.2019 11:00:00 12,6 10,3 - 0,0
20.05.2019 10:00:00 11,2 9,7 11,2 0,0
20.05.2019 09:00:00 10,5 9,9 - 0,0
20.05.2019 08:00:00 10,8 10,8 - 0,0
20.05.2019 07:00:00 10,1 10,1 - 0,0
20.05.2019 06:00:00 9,3 9,3 - 0,0
20.05.2019 05:00:00 9,2 9,1 - 0,0
20.05.2019 04:00:00 9,0 9,0 - 0,0
20.05.2019 03:00:00 9,1 9,1 - 0,0
20.05.2019 02:00:00 9,4 9,3 - 0,0
20.05.2019 01:00:00 9,6 9,3 - 0,0

tt = temperature
td = dewpoint
tt -20cm = temperature -20cm
rr = precipitation

Next stations